TimePDT,TemperatureF,Dew PointF,Humidity,Sea Level PressureIn,VisibilityMPH,Wind Direction,Wind SpeedMPH,Gust SpeedMPH,PrecipitationIn,Events,Conditions,WindDirDegrees,DateUTC
12:52 AM,59.0,42.1,53,29.92,10.0,SSE,3.5,-,N/A,,Overcast,150,2013-05-16 07:52:00
1:52 AM,57.0,44.1,62,29.92,10.0,SE,3.5,-,N/A,,Overcast,130,2013-05-16 08:52:00
2:52 AM,55.9,46.9,72,29.91,10.0,ESE,6.9,-,N/A,,Overcast,120,2013-05-16 09:52:00
3:52 AM,54.0,46.9,77,29.91,10.0,SE,4.6,-,N/A,,Overcast,130,2013-05-16 10:52:00
4:52 AM,53.1,46.0,77,29.92,10.0,ESE,4.6,-,N/A,,Overcast,120,2013-05-16 11:52:00
5:52 AM,52.0,46.9,83,29.93,10.0,East,4.6,-,0.00,,Overcast,100,2013-05-16 12:52:00
6:52 AM,52.0,46.9,83,29.94,10.0,ESE,6.9,-,0.00,,Overcast,110,2013-05-16 13:52:00
7:52 AM,53.1,46.9,80,29.95,10.0,SE,5.8,-,N/A,,Overcast,140,2013-05-16 14:52:00
8:52 AM,57.0,46.9,69,29.95,10.0,NE,3.5,-,N/A,,Overcast,50,2013-05-16 15:52:00
9:52 AM,59.0,46.0,62,29.95,10.0,Calm,Calm,-,N/A,,Overcast,0,2013-05-16 16:52:00
10:52 AM,61.0,46.0,58,29.94,10.0,ESE,4.6,-,N/A,,Overcast,120,2013-05-16 17:52:00
11:52 AM,66.0,43.0,43,29.92,10.0,South,4.6,-,N/A,,Scattered Clouds,190,2013-05-16 18:52:00
12:52 PM,69.1,42.1,38,29.90,10.0,WSW,6.9,-,N/A,,Partly Cloudy,240,2013-05-16 19:52:00
1:52 PM,69.1,39.9,35,29.88,10.0,Variable,3.5,-,N/A,,Mostly Cloudy,0,2013-05-16 20:52:00
2:52 PM,70.0,39.0,32,29.87,10.0,SSE,6.9,-,N/A,,Scattered Clouds,150,2013-05-16 21:52:00
3:52 PM,72.0,39.9,31,29.85,10.0,Variable,4.6,-,N/A,,Scattered Clouds,0,2013-05-16 22:52:00
4:52 PM,72.0,39.9,31,29.83,10.0,Variable,4.6,-,N/A,,Partly Cloudy,0,2013-05-16 23:52:00
5:52 PM,72.0,39.0,30,29.83,10.0,NE,5.8,-,N/A,,Clear,40,2013-05-17 00:52:00
6:52 PM,71.1,37.0,29,29.82,10.0,Calm,Calm,-,N/A,,Clear,0,2013-05-17 01:52:00
7:52 PM,68.0,37.9,33,29.83,10.0,SE,3.5,-,N/A,,Clear,130,2013-05-17 02:52:00
8:52 PM,64.9,39.0,39,29.84,10.0,NE,5.8,-,N/A,,Partly Cloudy,40,2013-05-17 03:52:00
9:52 PM,62.1,39.9,44,29.85,10.0,NNE,4.6,-,N/A,,Mostly Cloudy,30,2013-05-17 04:52:00
10:52 PM,57.0,41.0,55,29.86,10.0,NNE,3.5,-,N/A,,Scattered Clouds,30,2013-05-17 05:52:00
11:52 PM,57.0,42.1,57,29.87,10.0,NNE,6.9,-,N/A,,Scattered Clouds,20,2013-05-17 06:52:00